Showing default

ARCSAT-1, 52161

Orbit data source: Space-Track

ARCSAT-1, 52161 is a payload satellite owned by NDRE (NO) in SSO that was launched on Fri, 01 Apr 2022 UTC via an FALCON 9 launch vehicle from the Air Force Eastern Test Range (AFETR). Payload-class satellites include a variety of spacecraft equipped with specific instruments for various scientific and technological missions. These include communications satellites like Starlink; space stations such as the ISS; scientific satellites like the Hubble; Earth observation satellites from companies like Planet Labs, Umbra, and HawkEye 360; GPS; miniature CubeSats for education and research; and military/defense satellites.

Loading next visibility...
Identifier
52161, 2022-033E
Orbit
SSO
Country
Flag of NONO / NOR
Related business
Manufacturer
GOMSpace
Mission
Operational Defense Communications
Bus & Motor
CUBESAT 6U, Unknown motor
Mass
~10 kg wet, ~10 kg dry
Launch date (UTC)
2022-04-01 (4 years ago)
Launch vehicle
FALCON 9
Launch site
Air Force Eastern Test Range (AFETR)
Object type
Payload
Rocket body
Debris
Shape & HBR
Box, 0.1 m
Radar Cross Section
0.080 m², Medium (>0.1 m² and < 1m²)

Expand to show TLE details & history
Last TLE update: 1 day ago

TLE from 1 day ago
0 ARCSAT-1
1 52161U 22033E   26149.25096891  .00015995  00000-0  25701-3 0  9994
2 52161  97.2748 241.2500 0003236 258.0730 102.0161 15.53095062232764
Epoch: 2026-05-29T06:01Z
TLE epoch observation values (Epoch: 2026-05-29T06:01:23.713Z)
Latitude
-0.00001°
Longitude
-95.88284°
Altitude
411.292 km
Speed
7.664 km/s
True Right ascension
16h 05m 00s
True Declination
0° 00' 00"
Sunlit
Object was in full shadow at epoch
Visualization orbit readout
Latitude
Unknown
Longitude
Unknown
Altitude
Unknown
Speed
Unknown
Apparent Right ascension
Unknown
Apparent Declination
Unknown
Sunlit
N/A
Visualization observer readout
Local Sidereal Time
01:56:29
Azimuth
Unknown
Elevation
Unknown
Doppler factor
Unknown
Orbital elements
Apogee altitude
406.807 km
Perigee altitude
402.417 km
Semi-major axis
6,782.749 km
Eccentricity
0.00032
Inclination
97.2748°
RAAN
241.25°
Arg. of periapsis
258.073°
True anomaly
102.05237°
Mean anomaly
102.0161°
Eccentric anomaly
102.03423°
Mean motion
3.88539 °/min
Orbital period
92.65 mins
BSTAR
0.00025701
Loading maneuver chart data...
Computing Atmospheric mass density...

Documentation

Showing up to 5 results
|